PRSC-EO1 (62725 NORAD) Tracking and Keplerian Element Data

This shows tracking and keplerian element data for the satellite.

Feedback or suggestion? Click here.




ElementValue
Catalog62725
NamePRSC-EO1
Epoch Orbit5090
Epoch Day353.2640411
Epoch Year2025
RAAN64.0438
Inclination97.4451
Eccentricity0.0007374
Argument of Perigee164.6654
Mean Anonmoly195.4804
Mean Motion15.17666897
Decay Rate2.738E-05
L11 62725U 25012A 25353.26404110 .00002738 00000+0 13924-3 0 9999
L22 62725 97.4451 64.0438 0007374 164.6654 195.4804 15.17666897 50903



Live tracking and technical data element details for PRSC-EO1 (NORAD 62725). PRSC-EO1 can be tracked NOW for your location showing map with azimuth and elevation plus other details from your city location.







IsCatalogInMostPopularTable: catalog: 62725, numindb: 237
Update: records affected: 1



GetName: 62725 PRSC-EO1

Hit Count: updated at: Fri, 16 Jan 2026 09:15:09 GMT